When you browse on this site, cookies collect data to enhance your experience and personalize the content and advertising you see.
Visit our Privacy Policy to learn more. By continuing to use the site, you agree to this use of cookies and data.
  • In Austria
  • List of Countries
  • For 7 days
  • Water Temperature
  • Weather Map
  • News
  • Weather Widgets
  • user-avatar
    Login

    Hourly Weather Nashavar

    Today, 27 February, Thursday

    Time Temperature Precipitation Wind Pressure Humidity
    00:00 +20°C° 0 mm 1 mps 730 mmHg 46%
    01:00 +19°C° 0 mm 1 mps 730 mmHg 47%
    02:00 +17°C° 0 mm 0 mps 730 mmHg 48%
    03:00 +16°C° 0 mm 0 mps 730 mmHg 49%
    04:00 +16°C° 0 mm 0 mps 730 mmHg 50%
    05:00 +15°C° 0 mm 0 mps 730 mmHg 50%
    06:00 +16°C° 0 mm 0 mps 730 mmHg 50%
    07:00 +17°C° 0 mm 0 mps 731 mmHg 50%
    08:00 +18°C° 0 mm 0 mps 732 mmHg 50%
    09:00 +19°C° 0 mm 0 mps 732 mmHg 44%
    10:00 +23°C° 0 mm 1 mps 732 mmHg 39%
    11:00 +24°C° 0 mm 2 mps 732 mmHg 34%
    12:00 +25°C° 0 mm 2 mps 731 mmHg 33%
    13:00 +26°C° 0 mm 2 mps 731 mmHg 31%
    14:00 +27°C° 0 mm 2 mps 730 mmHg 30%
    15:00 +27°C° 0 mm 2 mps 730 mmHg 32%
    16:00 +27°C° 0 mm 1 mps 729 mmHg 33%
    17:00 +26°C° 0 mm 1 mps 729 mmHg 34%
    18:00 +25°C° 0.3 mm 1 mps 729 mmHg 41%
    19:00 +23°C° 0.3 mm 1 mps 729 mmHg 47%
    20:00 +21°C° 0.3 mm 1 mps 730 mmHg 54%
    21:00 +21°C° 0.1 mm 1 mps 730 mmHg 55%
    22:00 +20°C° 0.1 mm 2 mps 730 mmHg 57%
    23:00 +20°C° 0.1 mm 2 mps 730 mmHg 59%

    Tomorrow, 28 February, Friday

    Time Temperature Precipitation Wind Pressure Humidity
    00:00 +19°C° 0.1 mm 2 mps 730 mmHg 62%
    01:00 +19°C° 0.1 mm 2 mps 730 mmHg 66%
    02:00 +18°C° 0.1 mm 2 mps 729 mmHg 69%
    03:00 +18°C° 0 mm 2 mps 729 mmHg 72%
    04:00 +17°C° 0 mm 2 mps 729 mmHg 75%
    05:00 +17°C° 0 mm 2 mps 729 mmHg 78%
    06:00 +17°C° 0.2 mm 2 mps 729 mmHg 76%
    07:00 +17°C° 0.2 mm 2 mps 729 mmHg 75%
    08:00 +19°C° 0.2 mm 1 mps 730 mmHg 74%
    09:00 +19°C° 0.3 mm 2 mps 730 mmHg 70%
    10:00 +19°C° 0.3 mm 2 mps 731 mmHg 65%
    11:00 +20°C° 0.3 mm 2 mps 731 mmHg 61%
    12:00 +20°C° 0.4 mm 2 mps 730 mmHg 60%
    13:00 +21°C° 0.4 mm 3 mps 730 mmHg 59%
    14:00 +21°C° 0.4 mm 3 mps 729 mmHg 57%
    15:00 +21°C° 0.2 mm 3 mps 729 mmHg 56%
    16:00 +21°C° 0.2 mm 3 mps 729 mmHg 55%
    17:00 +21°C° 0.2 mm 3 mps 728 mmHg 53%
    18:00 +20°C° 0.3 mm 3 mps 729 mmHg 57%
    19:00 +19°C° 0.3 mm 2 mps 729 mmHg 61%
    20:00 +18°C° 0.3 mm 2 mps 729 mmHg 65%
    21:00 +18°C° 0.9 mm 2 mps 730 mmHg 67%
    22:00 +18°C° 0.9 mm 2 mps 730 mmHg 69%
    23:00 +18°C° 0.9 mm 2 mps 730 mmHg 71%

    Day after tomorrow, 29 February, Saturday

    Time Temperature Precipitation Wind Pressure Humidity
    00:00 +17°C° 0.4 mm 3 mps 730 mmHg 74%
    01:00 +17°C° 0.4 mm 3 mps 730 mmHg 76%
    02:00 +16°C° 0.4 mm 3 mps 729 mmHg 78%
    03:00 +16°C° 0.2 mm 3 mps 729 mmHg 78%
    04:00 +14°C° 0.2 mm 3 mps 729 mmHg 78%
    05:00 +14°C° 0.2 mm 3 mps 729 mmHg 78%
    06:00 +14°C° 0.3 mm 3 mps 729 mmHg 79%
    07:00 +14°C° 0.3 mm 3 mps 730 mmHg 79%
    08:00 +14°C° 0.3 mm 3 mps 730 mmHg 79%
    09:00 +16°C° 0.1 mm 3 mps 731 mmHg 76%
    10:00 +16°C° 0.1 mm 3 mps 731 mmHg 73%
    11:00 +17°C° 0.1 mm 3 mps 732 mmHg 70%
    12:00 +17°C° 0.2 mm 3 mps 731 mmHg 70%
    13:00 +17°C° 0.2 mm 3 mps 731 mmHg 71%
    14:00 +17°C° 0.2 mm 3 mps 731 mmHg 72%
    15:00 +17°C° 0.2 mm 3 mps 731 mmHg 72%
    16:00 +16°C° 0.2 mm 3 mps 730 mmHg 73%
    17:00 +16°C° 0.2 mm 3 mps 730 mmHg 73%
    18:00 +16°C° 0 mm 3 mps 730 mmHg 73%
    19:00 +16°C° 0 mm 3 mps 731 mmHg 74%
    20:00 +16°C° 0 mm 2 mps 731 mmHg 74%
    21:00 +15°C° 0 mm 2 mps 731 mmHg 73%
    22:00 +15°C° 0 mm 2 mps 731 mmHg 73%
    23:00 +15°C° 0 mm 2 mps 731 mmHg 73%

    1 March, Sunday

    Time Temperature Precipitation Wind Pressure Humidity
    00:00 +15°C° 0 mm 2 mps 731 mmHg 72%
    01:00 +15°C° 0 mm 2 mps 730 mmHg 71%
    02:00 +14°C° 0 mm 2 mps 730 mmHg 70%
    03:00 +14°C° 0 mm 2 mps 730 mmHg 70%
    04:00 +14°C° 0 mm 2 mps 730 mmHg 70%
    05:00 +14°C° 0 mm 2 mps 729 mmHg 70%
    06:00 +15°C° 0 mm 1 mps 730 mmHg 68%
    07:00 +16°C° 0 mm 1 mps 730 mmHg 66%
    08:00 +16°C° 0 mm 1 mps 731 mmHg 63%
    09:00 +19°C° 0 mm 1 mps 731 mmHg 57%
    10:00 +21°C° 0 mm 1 mps 731 mmHg 50%
    11:00 +23°C° 0 mm 1 mps 732 mmHg 43%
    12:00 +24°C° 0 mm 1 mps 731 mmHg 41%
    13:00 +24°C° 0 mm 1 mps 731 mmHg 38%
    14:00 +25°C° 0 mm 1 mps 731 mmHg 36%
    15:00 +25°C° 0 mm 1 mps 730 mmHg 37%
    16:00 +25°C° 0 mm 1 mps 730 mmHg 37%
    17:00 +25°C° 0 mm 1 mps 729 mmHg 38%
    18:00 +24°C° 0 mm 1 mps 729 mmHg 41%
    19:00 +22°C° 0 mm 1 mps 729 mmHg 45%
    20:00 +21°C° 0 mm 1 mps 730 mmHg 49%
    21:00 +20°C° 0 mm 1 mps 729 mmHg 50%
    22:00 +20°C° 0 mm 1 mps 729 mmHg 50%
    23:00 +19°C° 0 mm 1 mps 729 mmHg 51%

    2 March, Monday

    Time Temperature Precipitation Wind Pressure Humidity
    00:00 +19°C° 0 mm 1 mps 729 mmHg 52%
    01:00 +19°C° 0 mm 1 mps 729 mmHg 52%
    02:00 +18°C° 0 mm 1 mps 728 mmHg 53%
    03:00 +18°C° 0 mm 1 mps 728 mmHg 54%
    04:00 +18°C° 0 mm 1 mps 728 mmHg 54%
    05:00 +16°C° 0 mm 1 mps 727 mmHg 54%
    06:00 +18°C° 0 mm 1 mps 728 mmHg 54%
    07:00 +19°C° 0 mm 1 mps 728 mmHg 53%
    08:00 +19°C° 0 mm 1 mps 729 mmHg 52%
    09:00 +21°C° 0 mm 1 mps 729 mmHg 46%
    10:00 +23°C° 0 mm 1 mps 729 mmHg 40%
    11:00 +24°C° 0 mm 1 mps 730 mmHg 34%
    12:00 +25°C° 0 mm 1 mps 729 mmHg 32%
    13:00 +26°C° 0 mm 1 mps 729 mmHg 30%
    14:00 +27°C° 0 mm 1 mps 729 mmHg 28%
    15:00 +27°C° 0 mm 1 mps 729 mmHg 29%
    16:00 +27°C° 0 mm 1 mps 728 mmHg 30%
    17:00 +27°C° 0 mm 1 mps 728 mmHg 31%
    18:00 +23°C° 0 mm 0 mps 728 mmHg 35%
    19:00 +21°C° 0 mm 0 mps 728 mmHg 39%
    20:00 +20°C° 0 mm 0 mps 729 mmHg 43%
    21:00 +19°C° 0 mm 0 mps 729 mmHg 45%
    22:00 +18°C° 0 mm 0 mps 729 mmHg 46%
    23:00 +20°C° 0 mm 1 mps 729 mmHg 47%

    3 March, Tuesday

    Time Temperature Precipitation Wind Pressure Humidity
    00:00 +17°C° 0 mm 0 mps 729 mmHg 48%
    01:00 +17°C° 0 mm 0 mps 728 mmHg 49%
    02:00 +16°C° 0 mm 0 mps 728 mmHg 51%
    03:00 +16°C° 0 mm 0 mps 728 mmHg 51%
    04:00 +18°C° 0 mm 1 mps 728 mmHg 51%
    05:00 +16°C° 0 mm 1 mps 727 mmHg 52%
    06:00 +18°C° 0 mm 1 mps 728 mmHg 51%
    07:00 +19°C° 0 mm 1 mps 728 mmHg 50%
    08:00 +18°C° 0 mm 0 mps 728 mmHg 49%
    09:00 +22°C° 0 mm 1 mps 729 mmHg 43%
    10:00 +23°C° 0 mm 1 mps 729 mmHg 37%
    11:00 +25°C° 0 mm 1 mps 729 mmHg 32%
    12:00 +26°C° 0 mm 1 mps 728 mmHg 30%
    13:00 +27°C° 0 mm 1 mps 728 mmHg 28%
    14:00 +28°C° 0 mm 1 mps 727 mmHg 26%
    15:00 +26°C° 0.1 mm 2 mps 727 mmHg 30%
    16:00 +25°C° 0.1 mm 3 mps 726 mmHg 35%
    17:00 +23°C° 0.1 mm 4 mps 726 mmHg 39%
    18:00 +22°C° 0 mm 3 mps 726 mmHg 41%
    19:00 +21°C° 0 mm 2 mps 726 mmHg 43%
    20:00 +21°C° 0 mm 1 mps 726 mmHg 45%
    21:00 +21°C° 0.1 mm 1 mps 726 mmHg 47%
    22:00 +20°C° 0.1 mm 1 mps 726 mmHg 48%
    23:00 +20°C° 0.1 mm 1 mps 726 mmHg 50%
    Show more